Location: Unspecified
(42.3650°N, 71.1030°W)
Time: 13:53:42
(UTC+00:00)

Courier 1B - Pass Details

Date: 26 June 2024
Orbit: 962 x 1209 km, 28.3° (Epoch: 25 July)

Event Time Altitude Azimuth Distance (km) Brightness Sun altitude
Rises 05:06:12 0° 241° (WSW) 3,746 - -24.2°
Reaches altitude 10° 05:09:19 10° 229° (SW) 2,833 - -24.1°
Maximum altitude 05:14:48 25° 176° (S) 1,994 - -24.0°
Drops below altitude 10° 05:20:34 10° 124° (ESE) 2,982 - -23.8°
Exits shadow 05:20:41 10° 123° (ESE) 3,016 9.8 -23.8°
Sets 05:23:56 0° 112° (ESE) 3,984 10.6 -23.8°
